Location: Göttingen
(51.5413°N, 9.9158°E)
Time: 04:17:08
(UTC+02:00)

Envisat - Pass Details

Date: 31 January 2022
Orbit: 764 x 765 km, 98.2° (Epoch: 28 May)

Event Time Altitude Azimuth Distance (km) Brightness Sun altitude
Rises 05:30:48 0° 14° (NNE) 3,244 6.4 -23.3°
Reaches altitude 10° 05:33:07 10° 14° (NNE) 2,313 5.6 -22.9°
Maximum altitude 05:38:13 86° 286° (WNW) 774 2.9 -22.1°
Drops below altitude 10° 05:43:18 10° 198° (SSW) 2,297 5.3 -21.3°
Sets 05:45:35 0° 198° (SSW) 3,219 6.1 -21.0°
